Showing default

YAOGAN-43 02C, 60947

Orbit data source: Space-Track

YAOGAN-43 02C, 60947 is a payload satellite owned by PLA GAD (CN) in LEO that was launched on Tue, 03 Sep 2024 UTC via a CHANG ZHENG 4B launch vehicle from the Xichang Space Center, China (XSC). Payload-class satellites include a variety of spacecraft equipped with specific instruments for various scientific and technological missions. These include communications satellites like Starlink; space stations such as the ISS; scientific satellites like the Hubble; Earth observation satellites from companies like Planet Labs, Umbra, and HawkEye 360; GPS; miniature CubeSats for education and research; and military/defense satellites.

Loading next visibility...
Identifier
60947, 2024-156C
Orbit
LEO
Country
Flag of CNCN / PRC
Related business
Manufacturer
SAST
Mission
Operational Defense Communications
Bus & Motor
Unknown
Mass
~300 kg wet, ~300 kg dry
Launch date (UTC)
2024-09-03 (2 years ago)
Launch vehicle
CHANG ZHENG 4B
Launch site
Xichang Space Center, China (XSC)
Object type
Payload
Rocket body
Debris
Shape & HBR
Box + 2 Pan, 2.5 m
Radar Cross Section
11.063 m², Medium (>0.1 m² and < 1m²)

Expand to show TLE details & history
Last TLE update: 17 hours ago

TLE from 17 hours ago
0 YAOGAN-43 02C
1 60947U 24156C   26126.35675284  .00006850  00000-0  28481-3 0  9996
2 60947  34.9970 101.2047 0004414 337.0036  23.0480 15.23087206 93069
Epoch: 2026-05-06T08:33Z
TLE epoch observation values (Epoch: 2026-05-06T08:33:43.445Z)
Latitude
-0.00005°
Longitude
108.5552°
Altitude
492.651 km
Speed
7.622 km/s
True Right ascension
06h 44m 49s
True Declination
0° 00' 00"
Sunlit
Object was in daylight at epoch
Visualization orbit readout
Latitude
Unknown
Longitude
Unknown
Altitude
Unknown
Speed
Unknown
Apparent Right ascension
Unknown
Apparent Declination
Unknown
Sunlit
N/A
Visualization observer readout
Local Sidereal Time
09:09:28
Azimuth
Unknown
Elevation
Unknown
Doppler factor
Unknown
Orbital elements
Apogee altitude
502.822 km
Perigee altitude
496.75 km
Semi-major axis
6,877.923 km
Eccentricity
0.00044
Inclination
34.997°
RAAN
101.2047°
Arg. of periapsis
337.0036°
True anomaly
23.06781°
Mean anomaly
23.048°
Eccentric anomaly
23.05791°
Mean motion
3.80502 °/min
Orbital period
94.61 mins
BSTAR
0.00028481
Loading maneuver chart data...
Computing Atmospheric mass density...
Loading historical data...
Loading historical data...
Loading historical data...
Loading historical data...
Loading historical data...
Loading historical data...
Loading historical data...

Documentation

Showing up to 5 results
|